| time (UTC) | temp F | wind direction | speed MPH | gust MPH | rain 1hr in | rain 24hr in | rain mn in | humidity % | barometer mb |
| 20260903130043 | 55 | 261 | 20.0 | 29.0 | 0.00 | 0.00 | 0.00 | 41 | 1010.4 |
| 20260903124550 | 55 | 212 | 16.0 | 22.0 | 0.00 | 0.00 | 0.00 | 40 | 1010.8 |
| 20260903123040 | 55 | 226 | 17.0 | 26.0 | 0.00 | 0.00 | 0.00 | 39 | 1010.9 |
| 20260903121538 | 55 | 222 | 14.0 | 25.0 | 0.00 | 0.00 | 0.00 | 39 | 1011.4 |
| 20260903120040 | 56 | 243 | 17.0 | 24.0 | 0.00 | 0.00 | 0.00 | 38 | 1011.5 |
| 20260903114540 | 56 | 238 | 17.0 | 25.0 | 0.00 | 0.00 | 0.00 | 38 | 1011.4 |
| 20260903113037 | 56 | 247 | 17.0 | 24.0 | 0.00 | 0.00 | 0.00 | 39 | 1011.4 |
| 20260903111534 | 56 | 221 | 20.0 | 25.0 | 0.00 | 0.00 | 0.00 | 40 | 1011.4 |
| 20260903110034 | 56 | 212 | 18.0 | 27.0 | 0.00 | 0.00 | 0.00 | 41 | 1011.5 |
| 20260903104533 | 56 | 221 | 21.0 | 27.0 | 0.00 | 0.00 | 0.00 | 43 | 1011.6 |
| 20260903103031 | 55 | 236 | 19.0 | 29.0 | 0.00 | 0.00 | 0.00 | 45 | 1011.5 |
| 20260903101529 | 55 | 214 | 19.0 | 28.0 | 0.00 | 0.00 | 0.00 | 45 | 1011.2 |
| 20260903100033 | 55 | 221 | 23.0 | 32.0 | 0.00 | 0.00 | 0.00 | 46 | 1010.9 |
| 20260903094527 | 55 | 224 | 25.0 | 33.0 | 0.00 | 0.00 | 0.00 | 47 | 1010.5 |
| 20260903093024 | 55 | 221 | 25.0 | 33.0 | 0.00 | 0.00 | 0.00 | 46 | 1010.7 |
| 20260903091523 | 55 | 233 | 20.0 | 34.0 | 0.00 | 0.00 | 0.00 | 48 | 1011.0 |
| 20260903090020 | 55 | 221 | 19.0 | 28.0 | 0.00 | 0.00 | 0.00 | 47 | 1011.1 |
| 20260903084537 | 55 | 246 | 15.0 | 30.0 | 0.00 | 0.00 | 0.00 | 48 | 1011.4 |
| 20260903083017 | 54 | 229 | 6.0 | 20.0 | 0.00 | 0.00 | 0.00 | 50 | 1011.7 |
| 20260903081515 | 54 | 217 | 10.0 | 20.0 | 0.00 | 0.00 | 0.00 | 53 | 1011.9 |
| 20260903080014 | 54 | 278 | 11.0 | 29.0 | 0.00 | 0.00 | 0.00 | 54 | 1012.1 |
| 20260903074512 | 54 | 203 | 18.0 | 29.0 | 0.00 | 0.00 | 0.00 | 53 | 1011.4 |
| 20260903073010 | 55 | 211 | 12.0 | 21.0 | 0.00 | 0.00 | 0.00 | 53 | 1012.3 |
| 20260903071507 | 55 | 241 | 13.0 | 24.0 | 0.00 | 0.00 | 0.00 | 51 | 1012.2 |
| 20260903070003 | 55 | 233 | 19.0 | 31.0 | 0.00 | 0.00 | 0.00 | 50 | 1011.7 |
| 20260903064503 | 56 | 222 | 24.0 | 36.0 | 0.00 | 0.00 | 0.00 | 49 | 1011.1 |
| 20260903063003 | 55 | 232 | 23.0 | 36.0 | 0.00 | 0.00 | 0.00 | 49 | 1011.0 |
| 20260903061501 | 56 | 237 | 26.0 | 38.0 | 0.00 | 0.00 | 0.00 | 48 | 1010.6 |
| 20260903060100 | 56 | 224 | 26.0 | 37.0 | 0.00 | 0.00 | 0.00 | 47 | 1010.9 |
| 20260903060002 | 56 | 244 | 26.0 | 37.0 | 0.00 | 0.00 | 0.00 | 47 | 1010.7 |
| 20260903054601 | 56 | 241 | 22.0 | 31.0 | 0.00 | 0.00 | 0.00 | 48 | 1011.4 |
| 20260903053115 | 56 | 212 | 24.0 | 34.0 | 0.00 | 0.00 | 0.00 | 48 | 1011.5 |
| 20260903051558 | 56 | 218 | 23.0 | 35.0 | 0.00 | 0.00 | 0.00 | 48 | 1012.0 |
| 20260903050104 | 56 | 233 | 24.0 | 33.0 | 0.00 | 0.00 | 0.00 | 48 | 1012.3 |
| 20260903044602 | 56 | 227 | 24.0 | 32.0 | 0.00 | 0.00 | 0.00 | 50 | 1012.0 |
| 20260903043110 | 56 | 233 | 24.0 | 34.0 | 0.00 | 0.00 | 0.00 | 50 | 1011.8 |
| 20260903041558 | 56 | 243 | 22.0 | 32.0 | 0.00 | 0.00 | 0.00 | 51 | 1011.8 |
| 20260903040056 | 56 | 246 | 22.0 | 30.0 | 0.00 | 0.00 | 0.00 | 51 | 1011.6 |
| 20260903034606 | 56 | 222 | 19.0 | 27.0 | 0.00 | 0.00 | 0.00 | 51 | 1012.1 |
| 20260903033054 | 56 | 230 | 17.0 | 25.0 | 0.00 | 0.00 | 0.00 | 51 | 1012.1 |
| 20260903031611 | 57 | 238 | 14.0 | 23.0 | 0.00 | 0.00 | 0.00 | 51 | 1012.0 |
| 20260903030053 | 57 | 219 | 14.0 | 22.0 | 0.00 | 0.00 | 0.00 | 50 | 1011.9 |
| 20260903024552 | 57 | 252 | 16.0 | 22.0 | 0.00 | 0.00 | 0.00 | 49 | 1011.9 |
| 20260903023051 | 58 | 252 | 14.0 | 21.0 | 0.00 | 0.00 | 0.00 | 48 | 1011.8 |
| 20260903021553 | 59 | 249 | 14.0 | 20.0 | 0.00 | 0.00 | 0.00 | 45 | 1011.8 |
| 20260903020050 | 60 | 252 | 15.0 | 22.0 | 0.00 | 0.00 | 0.00 | 44 | 1011.9 |
| 20260903014556 | 61 | 231 | 11.0 | 18.0 | 0.00 | 0.00 | 0.00 | 41 | 1011.8 |
| 20260903013049 | 62 | 242 | 11.0 | 19.0 | 0.00 | 0.00 | 0.00 | 40 | 1011.7 |
| 20260903011548 | 61 | 223 | 13.0 | 21.0 | 0.00 | 0.00 | 0.00 | 40 | 1011.6 |
| 20260903010048 | 61 | 258 | 13.0 | 24.0 | 0.00 | 0.00 | 0.00 | 39 | 1011.6 |
| 20260903004546 | 63 | 224 | 15.0 | 23.0 | 0.00 | 0.00 | 0.00 | 37 | 1011.3 |
| 20260903003045 | 64 | 255 | 19.0 | 27.0 | 0.00 | 0.00 | 0.00 | 37 | 1011.1 |
| 20260903001547 | 64 | 248 | 17.0 | 27.0 | 0.00 | 0.00 | 0.00 | 36 | 1011.3 |
| 20260903000044 | 65 | 178 | 12.0 | 27.0 | 0.00 | 0.00 | 0.00 | 35 | 1011.3 |
| 20260902234543 | 65 | 247 | 14.0 | 23.0 | 0.00 | 0.00 | 0.00 | 35 | 1011.2 |
| 20260902233042 | 66 | 231 | 11.0 | 19.0 | 0.00 | 0.00 | 0.00 | 34 | 1011.2 |
| 20260902231539 | 64 | 227 | 12.0 | 20.0 | 0.00 | 0.00 | 0.00 | 36 | 1011.0 |
| 20260902230037 | 63 | 242 | 12.0 | 21.0 | 0.00 | 0.00 | 0.00 | 37 | 1011.5 |
| 20260902224542 | 63 | 215 | 16.0 | 22.0 | 0.00 | 0.00 | 0.00 | 34 | 1011.3 |
| 20260902223040 | 63 | 219 | 13.0 | 19.0 | 0.00 | 0.00 | 0.00 | 33 | 1011.6 |
| 20260902221541 | 62 | 228 | 8.0 | 20.0 | 0.00 | 0.00 | 0.00 | 37 | 1011.5 |
| 20260902220043 | 62 | 227 | 11.0 | 19.0 | 0.00 | 0.00 | 0.00 | 38 | 1011.8 |
| 20260902214534 | 62 | 207 | 11.0 | 19.0 | 0.00 | 0.00 | 0.00 | 38 | 1011.8 |
| 20260902213032 | 62 | 240 | 15.0 | 24.0 | 0.00 | 0.00 | 0.00 | 39 | 1012.0 |
| 20260902211530 | 61 | 213 | 10.0 | 21.0 | 0.00 | 0.00 | 0.00 | 40 | 1012.1 |
| 20260902210051 | 61 | 238 | 16.0 | 29.0 | 0.00 | 0.00 | 0.00 | 40 | 1012.1 |
| 20260902204533 | 61 | 170 | 15.0 | 26.0 | 0.00 | 0.00 | 0.00 | 39 | 1012.0 |
| 20260902203028 | 61 | 166 | 14.0 | 22.0 | 0.00 | 0.00 | 0.00 | 40 | 1011.9 |
| 20260902201530 | 60 | 215 | 12.0 | 24.0 | 0.00 | 0.00 | 0.00 | 40 | 1012.0 |
| 20260902200026 | 60 | 251 | 9.0 | 16.0 | 0.00 | 0.00 | 0.00 | 42 | 1012.2 |
| 20260902194529 | 60 | 238 | 14.0 | 21.0 | 0.00 | 0.00 | 0.00 | 40 | 1012.1 |
| 20260902193024 | 60 | 224 | 13.0 | 18.0 | 0.00 | 0.00 | 0.00 | 41 | 1012.2 |
| 20260902191521 | 59 | 228 | 13.0 | 19.0 | 0.00 | 0.00 | 0.00 | 40 | 1012.2 |
| 20260902190025 | 59 | 229 | 12.0 | 21.0 | 0.00 | 0.00 | 0.00 | 40 | 1012.2 |
| 20260902184521 | 59 | 243 | 16.0 | 27.0 | 0.00 | 0.00 | 0.00 | 41 | 1012.2 |
| 20260902183017 | 58 | 227 | 19.0 | 25.0 | 0.00 | 0.00 | 0.00 | 41 | 1012.1 |
| 20260902181516 | 58 | 243 | 13.0 | 25.0 | 0.00 | 0.00 | 0.00 | 44 | 1012.3 |
| 20260902180014 | 58 | 240 | 16.0 | 24.0 | 0.00 | 0.00 | 0.00 | 44 | 1012.2 |
| 20260902174512 | 57 | 246 | 13.0 | 23.0 | 0.00 | 0.00 | 0.00 | 46 | 1012.3 |
| 20260902173013 | 57 | 200 | 5.0 | 13.0 | 0.00 | 0.00 | 0.00 | 49 | 1012.2 |
| 20260902171508 | 56 | 209 | 6.0 | 13.0 | 0.00 | 0.00 | 0.00 | 50 | 1012.1 |
| 20260902170009 | 55 | 269 | 5.0 | 11.0 | 0.00 | 0.00 | 0.00 | 52 | 1012.1 |
| 20260902164507 | 55 | 242 | 8.0 | 13.0 | 0.00 | 0.00 | 0.00 | 52 | 1012.1 |
| 20260902163003 | 54 | 250 | 9.0 | 14.0 | 0.00 | 0.00 | 0.00 | 52 | 1011.8 |
| 20260902161504 | 54 | 241 | 9.0 | 14.0 | 0.00 | 0.00 | 0.00 | 52 | 1011.7 |
| 20260902160002 | 53 | 287 | 6.0 | 11.0 | 0.00 | 0.00 | 0.00 | 52 | 1011.8 |
| 20260902154559 | 53 | 272 | 5.0 | 11.0 | 0.00 | 0.00 | 0.00 | 52 | 1011.5 |
| 20260902153059 | 53 | 211 | 5.0 | 11.0 | 0.00 | 0.00 | 0.00 | 52 | 1011.8 |
| 20260902151601 | 53 | 262 | 7.0 | 11.0 | 0.00 | 0.00 | 0.00 | 52 | 1011.7 |
| 20260902150056 | 53 | 234 | 9.0 | 13.0 | 0.00 | 0.00 | 0.00 | 51 | 1011.5 |
| 20260902144606 | 53 | 259 | 10.0 | 17.0 | 0.00 | 0.00 | 0.00 | 50 | 1011.5 |
| 20260902143054 | 52 | 246 | 10.0 | 16.0 | 0.00 | 0.00 | 0.00 | 51 | 1011.3 |
| 20260902141550 | 52 | 267 | 9.0 | 16.0 | 0.00 | 0.00 | 0.00 | 51 | 1011.0 |
| 20260902140053 | 52 | 240 | 8.0 | 13.0 | 0.00 | 0.00 | 0.00 | 51 | 1010.8 |
| 20260902134547 | 52 | 295 | 8.0 | 12.0 | 0.00 | 0.00 | 0.00 | 50 | 1010.5 |
| 20260902133046 | 52 | 276 | 8.0 | 12.0 | 0.00 | 0.00 | 0.00 | 50 | 1010.4 |
| 20260902131544 | 52 | 275 | 4.0 | 10.0 | 0.00 | 0.00 | 0.00 | 50 | 1010.3 |